Wind_Speed
15 17 19 22 23 23 23 23 23 22 23 25 27 28 30 30 31 32 32 32 31 30 29 31 33 34 34 35 34 34 33 32 32 33 32 31 30 29 29 30 31 33
16 17 19 22 23 23 23 23 22 22 22 24 26 28 29 30 31 32 31 31 32 31 29 29 31 33 34 35 35 35 34 33 32 32 32 31 30 29 28 28 28 30
16 18 20 22 22 22 22 22 21 21 22 24 25 27 28 30 31 32 31 31 32 32 30 29 30 32 33 34 35 35 35 34 33 32 31 30 30 29 28 27 26 27
16 18 20 22 22 21 21 21 21 21 22 23 24 26 28 30 31 31 30 30 32 33 32 30 30 31 33 34 34 35 35 35 34 33 32 30 29 28 28 27 26 25
16 18 21 22 21 20 20 20 20 21 22 22 23 25 28 31 31 30 30 30 32 34 33 31 30 31 32 33 34 35 35 35 35 34 33 31 28 26 26 27 26 25
17 19 21 21 20 19 19 19 20 21 22 22 23 25 28 31 32 31 29 30 32 34 33 32 31 31 32 33 34 35 35 35 36 36 35 32 29 26 24 25 25 25
17 19 21 20 19 19 19 19 19 21 22 23 23 25 27 31 32 31 30 30 32 35 34 32 31 31 32 33 34 35 36 36 36 36 36 33 30 26 23 22 23 24
18 19 20 19 18 18 18 18 19 20 22 23 24 25 26 29 32 31 30 30 33 35 34 32 31 32 32 33 34 35 36 36 36 36 35 33 31 27 24 22 21 22
18 19 19 18 17 18 18 18 19 20 22 23 24 25 26 28 30 31 30 30 33 35 34 32 32 32 33 34 35 36 36 36 36 36 35 33 31 28 25 23 21 21
17 18 19 18 17 17 18 18 19 20 22 24 24 25 26 27 29 31 30 30 32 35 34 33 32 32 33 34 35 36 36 36 35 35 34 32 31 29 26 24 23 22
17 18 18 18 17 17 17 18 19 20 21 23 25 26 26 26 28 31 31 31 32 34 35 34 33 33 34 35 36 37 36 36 35 34 33 32 31 29 28 26 24 23
18 18 18 18 17 17 17 18 19 20 21 23 25 26 27 26 27 30 31 31 31 33 35 35 34 34 35 36 36 36 36 35 34 32 32 31 31 30 28 27 26 25
18 18 18 18 17 17 17 17 18 19 20 22 25 27 27 27 27 29 31 31 32 33 34 35 35 35 35 35 36 36 35 34 33 31 30 30 30 29 28 27 26 26
19 18 18 19 18 18 18 17 18 19 20 21 24 26 27 27 27 28 30 32 32 32 33 35 36 35 34 35 36 36 35 33 32 31 30 29 29 28 28 27 26 26
19 19 19 19 19 18 18 18 18 18 19 20 22 25 26 27 27 28 30 31 32 32 32 33 35 35 35 35 35 36 35 33 31 30 29 29 28 27 26 26 26 25
20 19 19 19 19 19 19 19 19 19 19 20 21 23 25 26 27 28 29 31 32 32 32 33 34 35 34 34 35 35 34 33 31 30 29 28 27 26 25 25 25 25
20 19 19 20 20 20 20 20 19 19 20 20 21 21 23 25 26 27 28 30 31 32 32 32 34 34 34 34 34 35 34 33 31 30 28 28 27 26 26 25 25 25
19 19 20 20 20 20 20 20 20 20 20 20 20 21 21 23 25 26 27 29 30 31 31 32 33 34 34 33 34 34 35 34 32 30 29 28 27 27 26 26 25 25
19 19 20 20 20 21 21 21 21 21 21 21 21 21 21 22 23 25 26 28 29 30 31 31 33 34 34 33 34 35 35 35 33 32 31 30 29 27 27 26 26 26
18 19 19 20 20 21 21 21 22 22 22 22 21 21 21 21 22 24 25 27 29 30 30 31 32 33 33 33 34 35 35 36 35 34 33 32 31 30 28 27 27 27
18 18 19 19 20 21 21 21 22 22 22 23 22 22 22 22 22 23 24 26 28 30 31 31 32 33 33 33 34 35 36 36 36 36 35 34 34 32 31 30 29 29
17 17 18 19 19 20 21 21 22 22 23 23 24 23 23 23 23 23 24 26 27 29 31 31 32 32 33 34 34 35 36 36 37 37 36 36 36 35 34 32 31 31
17 17 18 18 19 20 21 21 22 22 23 23 24 25 25 25 25 25 24 25 27 29 31 32 32 33 33 34 34 35 36 37 37 37 37 37 37 37 36 34 33 33
19 19 18 18 18 19 20 21 22 22 22 23 24 25 25 26 26 26 26 25 26 28 30 32 33 33 34 34 34 35 36 37 38 38 38 38 38 38 38 37 36 35
21 20 19 18 18 19 20 21 21 22 22 23 24 25 25 26 27 27 27 27 26 27 29 32 33 34 34 34 35 35 35 37 38 38 39 39 39 39 39 38 37 37
22 22 20 19 19 19 19 20 21 22 22 23 23 24 25 26 27 28 28 29 28 27 29 31 33 34 35 35 35 35 35 36 38 38 39 39 40 41 41 40 39 39
Wind_Direction
341 344 345 344 342 342 345 350 352 353 355 356 356 358 359 2 4 6 8 8 7 6 6 8 9 10 12 14 16 18 17 15 14 13 13 11 11 11 13 13 13 15
344 346 346 345 343 343 348 352 355 357 359 357 358 359 0 3 5 6 8 9 9 7 5 6 7 8 9 11 14 16 17 17 15 13 12 12 11 11 10 11 13 14
347 348 348 347 345 345 351 356 359 2 3 1 1 3 4 5 6 6 8 9 9 8 6 5 5 6 7 8 9 12 14 16 16 15 12 10 11 11 9 9 11 13
349 350 350 348 345 349 356 0 4 7 6 5 5 7 7 7 7 7 8 9 9 9 8 6 4 4 5 5 6 7 9 11 13 14 13 10 9 9 8 8 8 10
352 352 352 349 346 353 1 5 8 10 9 9 10 11 11 9 8 8 9 9 9 10 10 8 6 4 3 3 3 4 5 6 8 10 11 10 9 7 6 7 7 7
354 354 352 349 349 356 5 8 10 13 12 11 12 12 12 11 10 10 10 9 9 10 10 10 8 6 4 3 2 2 2 3 3 5 6 8 8 7 5 5 6 7
355 354 351 349 351 359 6 9 11 14 14 13 12 12 12 12 11 11 10 10 10 10 11 10 10 8 6 4 3 1 1 1 2 2 3 5 7 7 5 3 3 5
355 353 350 349 352 0 6 8 11 13 13 12 11 11 11 12 12 11 11 10 11 11 11 11 10 10 8 5 3 1 1 0 1 1 2 3 5 6 6 3 1 2
355 351 349 349 353 0 6 7 9 11 11 11 9 8 10 12 12 12 11 11 12 11 11 11 11 10 8 6 3 1 1 0 1 1 2 3 4 6 6 4 2 1
352 349 349 349 351 359 5 7 8 9 9 9 7 6 8 11 12 12 12 11 12 12 11 12 11 10 8 5 4 2 1 1 2 2 2 3 3 5 7 6 4 2
350 347 348 348 349 355 2 6 7 7 8 8 6 5 7 8 10 12 12 11 11 11 12 12 11 9 7 6 4 2 1 2 2 3 3 3 3 4 6 7 6 4
347 345 347 347 346 349 356 2 5 5 6 6 4 4 5 7 9 11 12 11 11 11 12 12 11 9 8 6 4 2 1 2 2 3 3 3 2 2 4 6 7 6
344 344 346 347 345 343 347 355 360 1 3 4 3 3 5 6 7 10 11 11 11 10 11 11 11 9 7 6 4 2 2 2 3 3 4 4 2 1 1 3 5 5
342 342 345 346 344 342 342 348 353 356 358 0 1 2 4 6 6 7 10 11 11 10 9 10 10 8 7 6 4 3 2 3 3 4 4 4 2 0 359 360 1 2
340 340 343 345 344 342 341 343 348 351 353 356 359 1 3 5 5 5 7 10 10 9 8 8 8 7 7 6 5 3 3 3 4 4 4 3 2 360 358 358 359 359
339 339 341 343 343 342 341 341 344 348 349 351 355 359 2 4 4 4 5 8 9 9 8 7 7 7 6 6 5 4 4 3 4 5 4 3 1 359 358 358 358 357
338 338 339 341 341 342 341 340 342 345 347 348 350 354 359 2 3 3 4 6 7 7 7 7 6 6 6 6 5 5 4 4 5 5 4 3 2 359 358 358 357 354
338 337 338 339 340 341 341 340 340 342 345 346 347 349 354 359 2 2 3 4 5 5 5 6 6 5 6 6 5 5 5 5 5 5 5 4 2 360 358 357 354 352
336 336 337 337 337 338 340 340 340 340 342 344 344 346 349 354 359 1 1 2 3 3 3 4 4 4 5 5 5 5 5 5 5 6 6 5 3 1 358 356 354 351
334 334 335 335 335 336 337 339 339 338 339 340 342 343 344 348 353 357 359 360 0 1 1 1 2 3 4 4 4 4 5 5 5 5 5 5 4 2 359 357 355 352
332 332 333 334 334 333 334 336 337 337 337 337 338 340 342 344 347 351 355 357 357 359 359 360 359 360 1 3 3 4 4 5 5 4 5 5 4 2 0 358 355 353
328 329 330 331 332 332 332 332 334 335 335 335 335 336 338 341 343 345 349 352 354 355 357 358 358 357 358 0 2 3 3 4 4 3 4 4 3 2 0 358 355 353
322 324 327 328 329 329 330 330 331 332 333 333 333 333 334 337 339 341 343 346 349 351 353 356 357 356 356 358 0 1 2 3 3 2 2 2 2 2 0 358 356 353
319 319 321 323 325 326 327 328 328 328 329 331 331 331 332 333 336 338 339 341 344 347 349 353 355 355 354 355 358 359 0 1 1 1 0 1 2 1 360 358 356 353
316 315 316 317 320 322 324 325 325 325 326 327 329 330 330 330 332 334 336 337 339 342 345 349 352 353 353 353 355 357 359 360 360 359 358 359 1 1 359 358 356 353
312 312 314 314 315 317 320 322 322 322 323 324 326 327 328 329 330 331 334 335 336 338 341 344 349 351 351 352 353 355 357 358 358 357 357 357 359 359 359 358 356 354
Height
5765 5763 5762 5760 5758 5756 5753 5751 5749 5746 5744 5742 5739 5737 5734 5731 5728 5725 5721 5718 5715 5712 5709 5705 5702 5699 5695 5692 5688 5684 5681 5677 5674 5670 5667 5664 5661 5658 5655 5652 5649 5645
5764 5763 5761 5759 5757 5755 5753 5750 5748 5746 5744 5741 5739 5736 5733 5730 5727 5724 5721 5718 5715 5712 5709 5706 5702 5699 5696 5692 5689 5685 5682 5678 5675 5671 5668 5665 5662 5659 5656 5654 5651 5648
5764 5762 5761 5759 5757 5755 5752 5750 5748 5746 5743 5741 5739 5736 5733 5730 5727 5724 5721 5718 5715 5712 5709 5706 5703 5699 5696 5693 5689 5685 5682 5679 5676 5672 5669 5666 5663 5660 5657 5654 5652 5649
5763 5762 5760 5759 5757 5755 5752 5750 5748 5745 5743 5741 5739 5736 5733 5730 5727 5724 5721 5718 5716 5712 5709 5706 5703 5700 5697 5693 5690 5686 5683 5679 5676 5673 5670 5667 5663 5661 5658 5655 5652 5650
5763 5761 5760 5759 5757 5754 5752 5750 5748 5745 5743 5741 5738 5736 5733 5730 5727 5724 5721 5719 5716 5713 5709 5706 5703 5700 5697 5694 5690 5687 5683 5680 5676 5673 5670 5667 5664 5661 5659 5656 5653 5650
5763 5761 5760 5758 5757 5754 5752 5750 5748 5745 5743 5741 5738 5736 5734 5731 5728 5724 5722 5719 5716 5713 5709 5706 5703 5700 5697 5694 5691 5687 5684 5680 5677 5673 5670 5667 5664 5661 5659 5656 5654 5651
5762 5761 5760 5758 5756 5754 5752 5750 5748 5745 5743 5741 5739 5736 5734 5731 5728 5725 5722 5719 5716 5713 5710 5707 5704 5701 5698 5694 5691 5688 5684 5680 5677 5673 5670 5667 5664 5661 5659 5657 5654 5652
5762 5761 5760 5758 5756 5754 5752 5750 5748 5746 5743 5741 5739 5736 5734 5731 5728 5725 5722 5720 5716 5713 5710 5707 5704 5701 5698 5695 5692 5688 5684 5681 5677 5674 5670 5667 5664 5661 5659 5657 5654 5652
5762 5761 5759 5758 5757 5754 5752 5750 5748 5746 5744 5741 5739 5737 5734 5731 5729 5726 5723 5720 5717 5713 5710 5707 5704 5701 5698 5695 5692 5688 5684 5681 5677 5674 5670 5667 5664 5661 5659 5657 5654 5652
5762 5761 5759 5758 5757 5755 5752 5750 5748 5746 5744 5742 5739 5737 5734 5732 5729 5726 5723 5720 5717 5714 5711 5707 5704 5701 5698 5695 5692 5688 5685 5681 5678 5674 5670 5667 5664 5662 5659 5657 5654 5652
5762 5760 5759 5758 5756 5755 5752 5750 5748 5746 5744 5742 5740 5737 5734 5732 5729 5726 5723 5720 5717 5714 5711 5708 5705 5702 5698 5695 5692 5688 5685 5681 5678 5675 5671 5668 5665 5662 5659 5657 5654 5652
5761 5760 5759 5757 5756 5754 5752 5750 5748 5746 5744 5742 5740 5737 5735 5732 5729 5727 5724 5721 5718 5715 5711 5708 5705 5702 5698 5695 5692 5689 5685 5682 5679 5675 5672 5668 5665 5662 5659 5657 5655 5652
5761 5760 5758 5757 5756 5754 5752 5750 5748 5746 5744 5742 5740 5737 5735 5732 5729 5727 5724 5721 5718 5715 5712 5708 5705 5702 5699 5696 5693 5690 5686 5683 5679 5676 5673 5669 5666 5663 5660 5657 5655 5653
5761 5759 5758 5757 5755 5754 5752 5750 5748 5746 5744 5742 5740 5737 5735 5732 5730 5727 5724 5721 5718 5715 5712 5709 5706 5703 5700 5697 5693 5690 5687 5683 5680 5676 5673 5670 5667 5664 5661 5658 5655 5653
5761 5759 5758 5756 5755 5753 5752 5750 5748 5746 5744 5742 5740 5737 5735 5732 5730 5727 5724 5721 5718 5715 5713 5710 5707 5704 5701 5697 5694 5691 5688 5684 5681 5677 5674 5671 5668 5665 5662 5659 5656 5653
5760 5759 5757 5756 5754 5753 5751 5749 5747 5745 5743 5741 5739 5737 5735 5732 5730 5727 5725 5722 5719 5716 5713 5711 5708 5705 5701 5698 5695 5692 5688 5685 5681 5678 5674 5671 5668 5665 5662 5659 5656 5653
5760 5758 5757 5755 5754 5752 5751 5749 5747 5745 5743 5741 5739 5737 5735 5732 5730 5727 5725 5722 5719 5716 5714 5711 5708 5705 5702 5699 5696 5692 5689 5686 5682 5678 5675 5672 5668 5666 5662 5659 5656 5654
5759 5758 5756 5755 5753 5752 5750 5748 5747 5745 5743 5741 5739 5737 5735 5732 5730 5727 5725 5722 5720 5717 5714 5711 5709 5705 5702 5699 5696 5693 5690 5686 5683 5679 5675 5672 5669 5666 5662 5659 5656 5653
5758 5757 5756 5754 5753 5751 5750 5748 5746 5744 5742 5740 5738 5736 5734 5732 5730 5727 5725 5722 5720 5717 5714 5712 5709 5706 5703 5699 5696 5693 5690 5686 5683 5679 5676 5672 5669 5666 5663 5659 5656 5653
5757 5756 5755 5753 5752 5750 5749 5747 5745 5744 5742 5740 5738 5736 5734 5732 5730 5727 5725 5722 5720 5717 5715 5712 5709 5706 5703 5700 5696 5693 5689 5686 5683 5679 5676 5672 5669 5666 5662 5659 5656 5653
5756 5755 5753 5752 5751 5749 5748 5746 5745 5743 5741 5739 5737 5735 5733 5731 5729 5727 5725 5722 5720 5717 5715 5712 5709 5706 5703 5700 5696 5693 5689 5686 5682 5679 5675 5672 5668 5665 5662 5658 5655 5652
5754 5753 5752 5751 5750 5748 5747 5745 5744 5742 5740 5738 5737 5735 5733 5731 5729 5727 5724 5722 5720 5717 5714 5712 5709 5706 5703 5699 5696 5692 5689 5685 5682 5679 5675 5672 5668 5665 5661 5657 5654 5650
5753 5752 5751 5750 5748 5747 5746 5744 5742 5741 5739 5737 5736 5734 5732 5730 5728 5726 5724 5722 5719 5717 5714 5711 5709 5705 5702 5699 5696 5692 5689 5685 5682 5679 5675 5671 5667 5664 5660 5657 5653 5649
5752 5750 5749 5748 5747 5746 5744 5743 5741 5740 5738 5736 5734 5733 5731 5729 5727 5725 5723 5721 5719 5716 5714 5711 5708 5705 5702 5698 5695 5692 5688 5685 5682 5678 5675 5671 5667 5663 5659 5655 5651 5647
5750 5749 5747 5746 5745 5744 5743 5741 5740 5738 5737 5735 5733 5731 5730 5728 5726 5724 5722 5720 5718 5716 5713 5711 5708 5705 5701 5698 5695 5691 5688 5684 5681 5678 5674 5671 5667 5663 5659 5655 5650 5646
5748 5747 5746 5744 5743 5742 5741 5740 5738 5737 5735 5733 5732 5730 5728 5727 5725 5723 5721 5719 5717 5715 5713 5710 5707 5704 5701 5698 5694 5691 5687 5684 5681 5677 5674 5670 5666 5662 5658 5654 5650 5645